Whidbey Island, WA
on Wednesday, February 20, 2013

Wednesday
Previous Day Next Day
Daily Summary
 ActualAverageRecord
Temperature
Mean Temperature °F / °C °F / °C  
Max Temperature 45°F / 7°C 47°F / 8°C 59°F / 15°C (2000)
Min Temperature 33°F / 1°C 33°F / 0°C 23°F / -5°C (2011)
Degree Days
Heating Degree Days 26    
Moisture
Dew Point 36°F / 2°C   
Average Humidity 83    
Maximum Humidity 93    
Minimum Humidity 73    
Precipitation
Precipitation 0.00 in / 0.00 cm in / cm in / cm ()
Wind
Wind Speed 8 mph / 13 km/h   
Max Wind Speed 15 mph / 24 km/h   
Max Gust Speed 23 mph / 37 km/h   
Visibility 10 miles / 15 kilometers   
Events Rain   
Averages and records for this station are not official NWS values.
Key: T is trace of precipitation, MM is missing value
Source: NWS Daily Summary
Seasonal Weather Averages
Time(PST)TemperatureDew PointHumidity Pressure Visibility Wind DirectionWind SpeedGust SpeedPrecipitationEvents Conditions
12:56 AM 34.0°F / 1.1°C 30.9°F / -0.6°C 89% 30.02 in / 1016.5 hPa 10.0 miles / 16.1 kilometers ESE 5.8 mph / 9.3 km/h - N/A   Scattered Clouds
1:56 AM 33.1°F / 0.6°C 30.0°F / -1.1°C 89% 30.04 in / 1017.0 hPa 9.0 miles / 14.5 kilometers ESE 4.6 mph / 7.4 km/h - N/A   Mostly Cloudy
2:56 AM 34.0°F / 1.1°C 32.0°F / 0.0°C 92% 30.04 in / 1017.1 hPa 7.0 miles / 11.3 kilometers ESE 5.8 mph / 9.3 km/h - N/A   Mostly Cloudy
3:56 AM 37.9°F / 3.3°C 35.1°F / 1.7°C 89% 30.04 in / 1017.3 hPa 7.0 miles / 11.3 kilometers ESE 5.8 mph / 9.3 km/h - N/A   Overcast
4:54 AM 37.4°F / 3.0°C 35.6°F / 2.0°C 93% 30.03 in / 1016.8 hPa 10.0 miles / 16.1 kilometers ESE 4.6 mph / 7.4 km/h - N/A   Mostly Cloudy
4:56 AM 37.9°F / 3.3°C 35.1°F / 1.7°C 89% 30.05 in / 1017.4 hPa 10.0 miles / 16.1 kilometers ESE 4.6 mph / 7.4 km/h - N/A   Mostly Cloudy
5:56 AM 39.0°F / 3.9°C 36.0°F / 2.2°C 89% 30.04 in / 1017.3 hPa 10.0 miles / 16.1 kilometers SE 8.1 mph / 13.0 km/h - 0.00 in / 0.0 cm Rain Light Rain
6:56 AM 39.9°F / 4.4°C 37.0°F / 2.8°C 89% 30.04 in / 1017.0 hPa 8.0 miles / 12.9 kilometers SE 5.8 mph / 9.3 km/h - 0.00 in / 0.0 cm   Overcast
7:56 AM 39.9°F / 4.4°C 37.0°F / 2.8°C 89% 30.03 in / 1016.9 hPa 8.0 miles / 12.9 kilometers East 6.9 mph / 11.1 km/h - N/A   Overcast
8:56 AM 41.0°F / 5.0°C 37.9°F / 3.3°C 89% 30.03 in / 1016.9 hPa 8.0 miles / 12.9 kilometers SE 10.4 mph / 16.7 km/h - N/A   Overcast
9:10 AM 42.8°F / 6.0°C 37.4°F / 3.0°C 81% 30.02 in / 1016.5 hPa 8.0 miles / 12.9 kilometers SE 11.5 mph / 18.5 km/h - 0.00 in / 0.0 cm Rain Light Rain
9:46 AM 42.8°F / 6.0°C 39.2°F / 4.0°C 87% 30.02 in / 1016.5 hPa 8.0 miles / 12.9 kilometers ESE 10.4 mph / 16.7 km/h - 0.00 in / 0.0 cm   Overcast
9:56 AM 42.1°F / 5.6°C 39.0°F / 3.9°C 89% 30.03 in / 1016.8 hPa 9.0 miles / 14.5 kilometers ESE 8.1 mph / 13.0 km/h - 0.00 in / 0.0 cm   Overcast
10:56 AM 43.0°F / 6.1°C 39.0°F / 3.9°C 86% 30.04 in / 1017.0 hPa 10.0 miles / 16.1 kilometers East 8.1 mph / 13.0 km/h - N/A   Overcast
11:56 AM 44.1°F / 6.7°C 37.0°F / 2.8°C 76% 30.03 in / 1016.7 hPa 10.0 miles / 16.1 kilometers ESE 11.5 mph / 18.5 km/h - N/A   Overcast
12:12 PM 44.6°F / 7.0°C 37.4°F / 3.0°C 76% 29.99 in / 1015.5 hPa 10.0 miles / 16.1 kilometers ESE 15.0 mph / 24.1 km/h 23.0 mph / 37.0 km/h N/A   Overcast
12:56 PM 44.1°F / 6.7°C 36.0°F / 2.2°C 73% 30.01 in / 1016.3 hPa 9.0 miles / 14.5 kilometers SE 13.8 mph / 22.2 km/h - N/A   Overcast
1:27 PM 44.6°F / 7.0°C 37.4°F / 3.0°C 76% 30.00 in / 1015.8 hPa 10.0 miles / 16.1 kilometers SE 10.4 mph / 16.7 km/h - N/A   Overcast
1:47 PM 44.6°F / 7.0°C 37.4°F / 3.0°C 76% 30.00 in / 1015.8 hPa 10.0 miles / 16.1 kilometers SE 9.2 mph / 14.8 km/h - 0.00 in / 0.0 cm Rain Light Rain
1:56 PM 45.0°F / 7.2°C 37.0°F / 2.8°C 74% 30.01 in / 1016.0 hPa 10.0 miles / 16.1 kilometers SE 12.7 mph / 20.4 km/h - 0.00 in / 0.0 cm Rain Light Rain
2:56 PM 45.0°F / 7.2°C 37.0°F / 2.8°C 74% 30.01 in / 1016.0 hPa 10.0 miles / 16.1 kilometers SE 11.5 mph / 18.5 km/h - 0.00 in / 0.0 cm Rain Light Rain
3:26 PM 44.6°F / 7.0°C 37.4°F / 3.0°C 76% 29.99 in / 1015.5 hPa 10.0 miles / 16.1 kilometers SE 11.5 mph / 18.5 km/h - 0.00 in / 0.0 cm   Overcast
3:56 PM 44.1°F / 6.7°C 37.0°F / 2.8°C 76% 30.01 in / 1016.0 hPa 10.0 miles / 16.1 kilometers SE 10.4 mph / 16.7 km/h - 0.00 in / 0.0 cm Rain Light Rain
4:10 PM 44.6°F / 7.0°C 37.4°F / 3.0°C 76% 29.99 in / 1015.5 hPa 10.0 miles / 16.1 kilometers SE 10.4 mph / 16.7 km/h - 0.00 in / 0.0 cm   Overcast
4:56 PM 44.1°F / 6.7°C 37.9°F / 3.3°C 79% 30.01 in / 1016.1 hPa 10.0 miles / 16.1 kilometers SE 9.2 mph / 14.8 km/h - 0.00 in / 0.0 cm   Overcast
5:37 PM 42.8°F / 6.0°C 37.4°F / 3.0°C 81% 30.00 in / 1015.8 hPa 10.0 miles / 16.1 kilometers ESE 9.2 mph / 14.8 km/h - N/A   Overcast
5:56 PM 43.0°F / 6.1°C 37.0°F / 2.8°C 80% 30.01 in / 1016.2 hPa 10.0 miles / 16.1 kilometers ESE 8.1 mph / 13.0 km/h - N/A   Overcast
6:56 PM 41.0°F / 5.0°C 36.0°F / 2.2°C 82% 30.02 in / 1016.4 hPa 10.0 miles / 16.1 kilometers SE 9.2 mph / 14.8 km/h - N/A   Mostly Cloudy
7:13 PM 42.8°F / 6.0°C 35.6°F / 2.0°C 76% 30.01 in / 1016.1 hPa 10.0 miles / 16.1 kilometers ESE 8.1 mph / 13.0 km/h - N/A   Mostly Cloudy
7:38 PM 39.2°F / 4.0°C 35.6°F / 2.0°C 87% 30.01 in / 1016.1 hPa 10.0 miles / 16.1 kilometers East 9.2 mph / 14.8 km/h - N/A   Mostly Cloudy
7:56 PM 37.9°F / 3.3°C 34.0°F / 1.1°C 86% 30.02 in / 1016.6 hPa 10.0 miles / 16.1 kilometers ESE 8.1 mph / 13.0 km/h - N/A   Scattered Clouds
8:12 PM 39.2°F / 4.0°C 35.6°F / 2.0°C 87% 30.01 in / 1016.1 hPa 10.0 miles / 16.1 kilometers ESE 8.1 mph / 13.0 km/h - N/A   Mostly Cloudy
8:56 PM 41.0°F / 5.0°C 37.0°F / 2.8°C 86% 30.03 in / 1016.9 hPa 10.0 miles / 16.1 kilometers East 5.8 mph / 9.3 km/h - N/A   Mostly Cloudy
9:56 PM 41.0°F / 5.0°C 36.0°F / 2.2°C 82% 30.03 in / 1016.9 hPa 10.0 miles / 16.1 kilometers East 8.1 mph / 13.0 km/h - N/A   Overcast
10:56 PM 39.0°F / 3.9°C 35.1°F / 1.7°C 86% 30.02 in / 1016.5 hPa 10.0 miles / 16.1 kilometers East 9.2 mph / 14.8 km/h - N/A   Mostly Cloudy
11:56 PM 39.9°F / 4.4°C 35.1°F / 1.7°C 83% 30.02 in / 1016.4 hPa 10.0 miles / 16.1 kilometers East 8.1 mph / 13.0 km/h - N/A   Mostly Cloudy
Moon Phase
Feb. 20 Feb. 25 Mar. 04 Mar. 11 Mar. 19
Sunrise:07:08 AM (PST) Moon Rise:12:52 PM (PST)2/20
Sunset:05:41 PM (PST) Moon Set:03:47 AM (PST)2/20

Copyright © 2014 The Weather Underground, Inc.